Preview of NWS' New Version of Forecast
This preview is not operational and should not be used for support decisions.
Latest weather observations around

Westfield, Barnes Municipal Airport (KBAF)

Using English Units (Switch to International System of Units)
Date/ Time (EDT) Wind (mph) Vis. (mi) Weather Sky Cond. Temp (°F) Rel. Humidity Wind Chill (°F) Heat Index (°F) Pressure Precip. (in)
Air Dwpt 6 hour Altimeter (inHg) Sea level (inHg) 1 hr 3 hr 6 hr
Max Min
Sep 21 16:53 S 7 10 Clear CLR 83 57     41%   82 30.14 30.14      
Sep 21 15:53 S 3 10 Clear CLR 83 56     40%   82 30.14 30.13      
Sep 21 14:53 SW 7 10 Clear CLR 83 58     43%   83 30.15 30.15      
Sep 21 13:53 S 5 10 Clear CLR 81 57     44%   81 30.17 30.16      
Sep 21 12:53 Calm 10 Clear CLR 80 55     42%   80 30.19 30.19      
Sep 21 11:53 NNE 6 10 Clear CLR 77 54     45%   77 30.21 30.21      
Sep 21 10:53 Calm 10 Clear CLR 73 54     51%   72 30.23 30.23      
Sep 21 09:53 N 3 10 Clear CLR 65 53     65%     30.23 30.23      
Sep 21 08:53 N 3 10 Clear CLR 60 51     72%     30.23 30.23      
Sep 21 07:53 Calm 10 Clear CLR 53 49     86%     30.22 30.22      
Sep 21 06:53 Calm 10 Clear CLR 49 46     90%     30.21 30.21      
Sep 21 05:53 N 3 10 Clear CLR 47 45     93% 46   30.19 30.19      
Sep 21 04:53 Calm 10 Clear CLR 48 46     93%     30.19 30.19      
Sep 21 03:53 NNW 5 10 Clear CLR 50 47     89%     30.18 30.18      
Sep 21 02:53 NNW 3 10 Clear CLR 51 47     86%     30.18 30.17      
Sep 21 01:53 Calm 10 Clear CLR 49 46     90%     30.17 30.17      
Sep 21 00:53 SSE 3 10 Clear CLR 50 47     89%     30.15 30.15      
Sep 20 23:53 S 3 10 Clear CLR 51 48     89%     30.15 30.15      
Sep 20 22:53 S 3 10 Clear CLR 53 49     86%     30.16 30.16      
Sep 20 21:53 Calm 10 Clear CLR 55 49     80%     30.16 30.17      
Sep 20 20:53 Calm 10 Clear CLR 58 51     78%     30.15 30.16      
Sep 20 19:53 Calm 10 Clear   60 52     75%     30.15 30.15      
Sep 20 18:53 Calm 10 Clear CLR 69 50     51%     30.13 30.13      
Sep 20 17:53 W 9 10 Clear   76 48     37%   75 30.12 30.12      
Sep 20 16:53 W 13 10 Clear CLR 79 47     32%   78 30.11 30.11      
Sep 20 15:53 WNW 7 10 Clear CLR 80 42     26%   79 30.11 30.11      
Sep 20 14:53 Calm 10 Clear CLR 79 43     28%   78 30.12 30.12      
Sep 20 13:53 E 3 10 Clear CLR 77 48     36%   76 30.14 30.14      
Sep 20 12:53 Calm 10 Clear CLR 74 50     43%   73 30.17 30.17      
Sep 20 11:53 5 10 Clear CLR 69 50     51%     30.2 30.2      
Sep 20 10:53 Calm 10 Clear CLR 63 48     58%     30.23 30.23      
Sep 20 09:53 Calm 10 Clear CLR 55 47     74%     30.24 30.25      
Sep 20 08:53 Calm 10 Clear CLR 47 45     93%     30.26 30.27      
Sep 20 07:53 Calm 10 Clear CLR 42 40     92%     30.25 30.26      
Sep 20 06:53 Calm 10 Patchy Fog CLR 37 35     92%     30.24 30.25      
Sep 20 06:51 Calm 1.5 Mostly Cloudy BKN002 37 36     93%     30.24        
Sep 20 06:39 Calm 0.25 Fog VV002 38 37     97%     30.24        
Sep 20 06:27 Calm 1.25 Fog/Mist BKN002 37 36     96%     30.23        
Sep 20 06:20 Calm 2.5 Fog/Mist SCT001 38 37     97%     30.24        
Sep 20 06:11 Calm 3 Fog/Mist BKN001 38 37     97%     30.24        
Sep 20 06:04 Calm 1 Fog/Mist VV001 38 37     97%     30.23        
Sep 20 05:53 Calm 0.25 Fog VV001 38 37     97%     30.23 30.24      
Sep 20 05:33 Calm 0.25 Fog VV001 38 38     100%     30.23        
Sep 20 05:02 Calm 0.25 Fog VV002 39 37     93%     30.23        
Sep 20 04:58 Calm 1.75 Fog/Mist BKN002 38 37     97%     30.23        
Sep 20 04:54 Calm 3 Fog/Mist BKN002 38 37     97%     30.23        
Sep 20 04:51 Calm 1.75 Fog/Mist BKN002 38 37     97%     30.23 30.23      
Sep 20 04:50 Calm 1.5 Fog/Mist BKN002 37 37     100%     30.23        
Sep 20 04:30 Calm 0.5 Fog VV002 38 36     92%     30.22        
Sep 20 04:11 Calm 4 Fog/Mist SCT002 39 37     93%     30.23        
Sep 20 04:01 Calm 5 Fog/Mist SCT001 39 37     93%     30.22        
Sep 20 03:53 Calm 2.5 Fog/Mist FEW001 39 37     93%     30.23 30.23      
Sep 20 03:49 Calm 3 Fog/Mist SCT001 39 37     93%     30.23        
Sep 20 03:41 Calm 3 Fog/Mist BKN001 39 38     96%     30.23        
Sep 20 03:33 Calm 1 Fog/Mist VV001 40 38     93%     30.23        
Sep 20 03:16 Calm 0.75 Fog/Mist VV002 40 38     93%     30.23        
Sep 20 03:13 Calm 1.75 Fog/Mist FEW002 40 38     93%     30.23        
Sep 20 02:53 Calm 10 Mostly Clear FEW001 40 38     93%     30.24 30.24      
Sep 20 02:41 Calm 10 Partly Cloudy SCT001 41 39     93%     30.24        
Sep 20 02:32 Calm 10 Mostly Cloudy BKN001 41 39     93%     30.24        
Sep 20 01:53 Calm 10 Clear CLR 42 40     92%     30.25 30.25      
Sep 20 00:53 Calm 10 Clear CLR 42 40     92%     30.26 30.26      
Sep 19 23:53 Calm 10 Clear CLR 45 42     90%     30.25 30.26      
Sep 19 22:53 Calm 10 Clear CLR 45 43     93%     30.26 30.27      
Sep 19 21:53 Calm 10 Clear CLR 46 44     93%     30.26 30.27      
Sep 19 20:53 Calm 10 Clear CLR 49 45     86%     30.27 30.27      
Sep 19 19:53 Calm 10 Clear CLR 52 45     77%     30.27 30.28      
Sep 19 18:53 Calm 10 Clear CLR 58 46     65%     30.28 30.29      
Sep 19 17:53 SE 3 10 Clear CLR 67 40     37%     30.27 30.28      
Sep 19 16:53 SSE 3 10 Clear CLR 69 34     27%     30.28 30.28      
Sep 19 15:53 Calm 10 Clear CLR 69 31     24%     30.29 30.29      
Sep 19 14:53 Calm 10 Clear CLR 70        %     30.3 30.3      
Sep 19 13:53 NNE 5 10 Clear CLR 67 32     27%     30.31 30.32      
Sep 19 12:53 Calm 10 Clear CLR 64 35     34%     30.33 30.34      
Sep 19 11:53 5 10 Clear CLR 63 36     37%     30.36 30.36      
Sep 19 10:53 N 6 10 Clear CLR 60 41     49%     30.37 30.37      
Sep 19 09:53 Calm 10 Clear CLR 54 42     64%     30.38 30.39      
Sep 19 08:53 ENE 5 10 Clear CLR 47 42     83% 45   30.38 30.39      
Sep 19 07:53 N 5 10 Clear CLR 43 40     89% 40   30.37 30.37      
Sep 19 06:53 Calm 10 Clear CLR 37 35     92%     30.36 30.37      
Sep 19 05:53 Calm 10 Clear CLR 39 37     93%     30.35 30.35      
Sep 19 04:53 NNW 5 10 Clear CLR 39 36     89% 36   30.35 30.35      
Sep 19 04:24 N 3 10 Partly Cloudy SCT001 39 37     93% 37   30.35        
Sep 19 04:15 Calm 10 Mostly Cloudy BKN001 39 37     93%     30.35        
Sep 19 04:05 Calm 10 Partly Cloudy SCT001 38 36     92%     30.35        
Sep 19 03:53 Calm 10 Clear CLR 39 36     89%     30.35 30.35      
Sep 19 02:53 N 5 10 Clear CLR 40 37     89% 37   30.35 30.36      
Sep 19 01:53 NNE 3 10 Clear CLR 41 38     89% 39   30.35 30.36      
Sep 19 00:53 Calm 10 Clear CLR 41 39     93%     30.35 30.36      
Sep 18 23:53 Calm 10 Clear CLR 43 40     89%     30.34 30.35      
Sep 18 22:53 Calm 10 Clear CLR 45 42     90%     30.34 30.35      
Sep 18 21:53 N 3 10 Clear CLR 48 43     83% 47   30.35 30.35      
Sep 18 20:53 NW 3 10 Clear CLR 50 45     83%     30.33 30.33      
Sep 18 19:53 Calm 10 Clear CLR 53 43     69%     30.3 30.31      
Sep 18 18:53 Calm 10 Clear CLR 58 44     60%     30.28 30.29      
Sep 18 17:53 NNE 8 10 Clear CLR 64 41     43%     30.28 30.28      
Sep 18 16:53 NE 7 10 Mostly Cloudy BKN055 67 41     39%     30.29 30.29      
Sep 18 15:53 N 10 10 Partly Cloudy SCT050 65 40     40%     30.27 30.27      
Sep 18 14:53 E 9 10 Partly Cloudy SCT049 65 41     42%     30.27 30.27      
May 14 07:53 S 8 10 Cloudy OVC007 51 49     92%     30.02 30.03      
May 14 06:53 S 3 10 Cloudy OVC008 51 49     92%     30.02 30.02      
May 14 05:12 S 5 10 Cloudy FEW007 BKN019 OVC050 50 49     96% 48   29.99        
May 12 04:53 N 8 10 Cloudy OVC085 51 34     52%     30.17 30.16      
May 12 02:53 NNE 8 10 Cloudy OVC110 51 36     56%     30.14 30.14      
Jun 12 01:53 SSE 6 10 Clear CLR 66 63     90%     29.96 29.95      
Jun 11 03:53 SSE 5 10 Clear CLR 64 60     87%     29.98 29.97      
Jun 10 00:53 Calm 10 Clear CLR 58 52     81%     29.86 29.86      
Jun 09 15:53 6 10 Clear CLR 77 49     37%   76 29.68 29.68      
Jun 09 12:53 NW 9 10 Clear CLR 75 52     45%   74 29.69 29.69      
Jun 08 19:53 S 7 10 Clear   63 47     56%     29.88 29.88      
Jun 08 03:15 Calm 4 Fog/Mist CLR 47 47     100%     30.02        
Jun 07 21:53 SSW 3 10 Clear CLR 56 54     93%     30.01 30.01 0    
Notice The following observation data may not be complete
Jun 07 20:53 Calm 10 Clear CLR   55      %     29.98 29.98 0    
Jun 06 10:19 N 13 10 Light Rain OVC012 50 49     96% 45   29.8   0    
Jun 06 05:53 NE 11 10 Cloudy OVC017 52 49     89%     29.78 29.78      
Jun 06 04:53 NNE 8 10 Cloudy OVC017 53 51     93%     29.77 29.77 0 0  
Jun 05 19:24 NE 5 1.75 Light Rain and Fog/Mist BKN006 BKN015 OVC023 56 56     100%     29.82   0    
Jun 05 18:49 NNE 6 2.5 Light Rain and Fog/Mist OVC013 55 55     100%     29.82   0